Change the Weather History Date:

Friday, April 4, 2014

  Actual Average Record
Temperature  
Mean Temperature 42 °F 40 °F  
Max Temperature 55 °F 52 °F 75 °F (1960)
Min Temperature 28 °F 28 °F 6 °F (1936)
Degree Days  
Heating Degree Days 23 25  
Month to date heating degree days 110 102  
Since 1 July heating degree days 6848 6560  
Cooling Degree Days 0 0  
Month to date cooling degree days 0 0  
Year to date cooling degree days 0 0  
Moisture  
Dew Point 22 °F    
Average Humidity 50    
Maximum Humidity 75    
Minimum Humidity 24    
Precipitation  
Precipitation 0.00 in 0.04 in 1.03 in (1903)
Month to date precipitation T 0.16  
Year to date precipitation 3.73 2.05  
Snow  
Snow 0.00 in 0.30 in 10.30 in (1903)
Month to date snowfall 0.3 1.4  
Since 1 July snowfall 70.6 53.3  
Snow Depth 0.00 in    
Sea Level Pressure  
Sea Level Pressure 29.80 in    
Wind  
Wind Speed 15 mph (SW)    
Max Wind Speed 26 mph    
Max Gust Speed 32 mph    
Visibility 10 miles    
Events      
T = Trace of Precipitation, MM = Missing Value Source: NWS Daily Summary

Daily Weather History Graph

Daily Weather History Graph

Search for Another Location

Airport or City:

Trip Planner

Search our weather history database for the weather conditions in past years. The results will help you decide how hot, cold, wet, or windy it might be!

Date:

Astronomy

Apr. 04, 2014 Rise Set
Actual Time 6:58 AM MDT 7:59 PM MDT
Civil Twilight 6:26 AM MDT 8:31 PM MDT
Nautical Twilight 5:49 AM MDT 9:08 PM MDT
Astronomical Twilight 5:09 AM MDT 9:48 PM MDT
Moon 10:03 AM MDT (4/4) 12:35 AM MDT (4/4)
Length of Visible Light 14h 04m
Length of Day
13h 01m
Waxing Crescent, 26% of the Moon is Illuminated
Apr 4
Waxing Crescent
Apr 7
First Quarter
Apr 15
Full
Apr 22
Last Quarter
Apr 29
New

Hourly Weather History & Observations

Time (MDT) Temp. Windchill Dew Point Humidity Pressure Visibility Wind Dir Wind Speed Gust Speed Precip Events Conditions
12:53 AM 39.0 °F 32.3 °F 21.9 °F 50% 29.91 in 10.0 mi South 10.4 mph - N/A   Clear
1:53 AM 37.9 °F 31.5 °F 23.0 °F 55% 29.88 in 10.0 mi South 9.2 mph - N/A   Clear
2:53 AM 39.9 °F 32.9 °F 21.9 °F 49% 29.87 in 10.0 mi South 11.5 mph - N/A   Clear
3:53 AM 37.9 °F 30.5 °F 21.9 °F 53% 29.84 in 10.0 mi South 11.5 mph - N/A   Clear
4:53 AM 39.9 °F 32.1 °F 21.0 °F 47% 29.82 in 10.0 mi SSW 13.8 mph - N/A   Clear
5:53 AM 39.0 °F 31.4 °F 19.9 °F 46% 29.82 in 10.0 mi SSW 12.7 mph - N/A   Clear
6:53 AM 39.0 °F 30.3 °F 19.9 °F 46% 29.82 in 10.0 mi SSW 16.1 mph - N/A   Clear
7:53 AM 39.9 °F 32.1 °F 19.0 °F 43% 29.83 in 10.0 mi SW 13.8 mph - N/A   Clear
8:53 AM 41.0 °F 33.1 °F 19.9 °F 43% 29.83 in 10.0 mi SSW 15.0 mph - N/A   Clear
9:53 AM 45.0 °F 37.4 °F 19.9 °F 37% 29.82 in 10.0 mi SSW 18.4 mph - N/A   Clear
10:53 AM 48.9 °F - 17.1 °F 28% 29.80 in 10.0 mi SW 18.4 mph - N/A   Clear
11:53 AM 52.0 °F - 18.0 °F 26% 29.78 in 10.0 mi SW 21.9 mph 28.8 mph N/A   Clear
12:53 PM 54.0 °F - 19.0 °F 25% 29.76 in 10.0 mi WSW 20.7 mph 26.5 mph N/A   Clear
1:53 PM 55.0 °F - 19.0 °F 24% 29.75 in 10.0 mi West 19.6 mph 25.3 mph N/A   Clear
2:53 PM 53.1 °F - 19.9 °F 27% 29.73 in 10.0 mi West 19.6 mph - N/A   Partly Cloudy
3:53 PM 53.1 °F - 21.0 °F 29% 29.73 in 10.0 mi West 12.7 mph 25.3 mph N/A   Scattered Clouds
4:53 PM 52.0 °F - 21.9 °F 31% 29.73 in 10.0 mi West 17.3 mph - N/A   Clear
5:53 PM 53.1 °F - 23.0 °F 31% 29.73 in 10.0 mi WSW 20.7 mph 26.5 mph N/A   Clear
6:53 PM 50.0 °F - 25.0 °F 38% 29.75 in 10.0 mi West 16.1 mph - N/A   Scattered Clouds
7:53 PM 48.0 °F - 21.9 °F 36% 29.76 in 10.0 mi West 20.7 mph 26.5 mph N/A   Mostly Cloudy
8:53 PM 43.0 °F 36.8 °F 26.1 °F 51% 29.80 in 10.0 mi WSW 11.5 mph - N/A   Clear
9:53 PM 36.0 °F 28.0 °F 25.0 °F 64% 29.82 in 10.0 mi SW 11.5 mph - N/A   Clear
10:53 PM 35.1 °F 27.4 °F 26.1 °F 70% 29.82 in 10.0 mi SW 10.4 mph - N/A   Clear
11:53 PM 33.1 °F 24.9 °F 26.1 °F 75% 29.82 in 10.0 mi SW 10.4 mph - N/A   Clear